Location: Chavannes
(47.1090°N, 0.2226°W)
Time: 04:21:59
(UTC+00:00)

MOS 1-B Rocket - Pass Details

Date: 16 October 2021
Orbit: 890 x 1605 km, 99.0° (Epoch: 03 December)

Event Time Altitude Azimuth Distance (km) Brightness Sun altitude
Rises 17:47:12 0° 17° (NNE) 4,243 7.1 -6.8°
Reaches altitude 10° 17:50:12 10° 24° (NNE) 3,163 6.4 -7.3°
Maximum altitude 17:57:00 47° 96° (E) 1,402 4.4 -8.5°
Drops below altitude 10° 18:02:51 10° 170° (S) 2,725 6.3 -9.5°
Sets 18:05:15 0° 176° (S) 3,606 7.0 -9.9°
